Regional Weather Roundup
Issued by NWS

Home | Current Version | Previous Version | Graphics & Text | Print | Product List | Glossary On
Versions: 1 2 3 4 5 6 7 8 9 10 11 12 13 14 15 16 17 18 19 20 21 22 23 24 25 26 27 28 29 30 31 32 33 34 35 36 37 38 39 40 41 42 43 44 45 46 47 48 49 50
000
ASUS43 KDMX 271506
RWRIA

WEATHER ROUNDUP FOR IOWA
NATIONAL WEATHER SERVICE DES MOINES IA
1000 AM CDT SAT MAY 27 2017

NOTE: "FAIR" INDICATES FEW OR NO CLOUDS BELOW 12,000 FEET WITH NO
SIGNIFICANT WEATHER AND/OR OBSTRUCTIONS TO VISIBILITY.

* - THESE STATIONS ARE NOT NWS STATIONS...THUS NOT UNDER NWS
QUALITY CONTROL.  THEY ALSO DO NOT REPORT WEATHER SUCH
AS PRECIPITATION OR FOG.

IAZ001>003-012>014-020>022-031>034-043>046-271600-
   NORTHWEST IOWA

CITY           SKY/WX    TMP DP  RH WIND       PRES   REMARKS
CARROLL *      PTSUNNY   68  50  52 NE8       29.91S
CHEROKEE *     CLOUDY    61  54  78 N5        29.93F
DENISON *      CLOUDY    63  52  67 N7        29.93R
LE MARS *      CLOUDY    59  54  82 NE6       29.95F
ORANGE CITY *  LGT RAIN  57  52  82 N3        29.95F
SHELDON *      LGT RAIN  55  52  88 N5        29.94S
SIOUX CITY     CLOUDY    61  51  70 NE7       29.92F
SPENCER        CLOUDY    63  53  70 NW10      29.95R
STORM LAKE *   CLOUDY    64  48  55 NE9       29.93S
$$

IAZ055>058-069>071-079>083-090>094-271600-
   SOUTHWEST IOWA

CITY           SKY/WX    TMP DP  RH WIND       PRES   REMARKS
ATLANTIC *     RAIN      59  55  88 W17       29.94R
AUDUBON *      CLOUDY    64  54  68 CALM      29.91R
CLARINDA *     CLOUDY    61  59  94 SE5       29.89F
COUNCIL BLFS * RAIN      55  55 100 N7G14     29.93F
CRESTON *      CLOUDY    64  63  94 S18G28    29.92S
HARLAN  *      CLOUDY    59  54  82 S5G29     30.02R HAZE
LAMONI         CLOUDY    67  63  87 SW25G41   29.95R
RED OAK *      LGT RAIN  59  57  94 N9        29.88F
SHENANDOAH *   LGT RAIN  59  57  94 N6        29.87F
$$

IAZ047>049-059>061-072>074-084-271600-
   CENTRAL IOWA

CITY           SKY/WX    TMP DP  RH WIND       PRES   REMARKS
AMES           PTSUNNY   64  63  96 S3        29.91R
ANKENY *       PTSUNNY   70  64  83 SE5       29.91F
BOONE *        CLOUDY    70  57  64 E7        29.91R
CHARITON *     CLOUDY    68  63  83 SE3       29.92S
DES MOINES     CLOUDY    69  64  84 SE6       29.90R
GRINNELL*      CLOUDY    63  62  97 CALM      29.94R
KNOXVILLE *    CLOUDY    70  63  78 SE6       29.91R
MARSHALLTOWN   MOSUNNY   64  63  96 S3        29.91R
NEWTON *       CLOUDY    68  61  77 S5        29.91R
PELLA *        MOSUNNY   69  62  76 CALM      29.93R
PERRY *        CLOUDY    68  59  72 NE5       29.91R
$$

IAZ004>006-015-016-023>025-035-036-271600-
   NORTH CENTRAL IOWA

CITY           SKY/WX    TMP DP  RH WIND       PRES   REMARKS
ALGONA *       CLOUDY    68  50  52 NE6       29.93S
CLARION *      CLOUDY    70  50  49 NE5       29.92S
ESTHERVILLE    CLOUDY    66  49  54 CALM      29.93R
FORT DODGE *   CLOUDY    66  54  63 N3        29.92S
MASON CITY     MOSUNNY   70  48  45 N7        29.92S
FOREST CITY *    N/A     70  41  35 N6        29.93R
WEBSTER CITY * CLOUDY    72  48  43 NE5       29.89S
IOWA FALLS *     N/A     71  55  57 CALM      29.93R
$$

IAZ007>011-017>019-026>030-037>042-050>054-066-271600-
   NORTHEAST IOWA

CITY           SKY/WX    TMP DP  RH WIND       PRES   REMARKS
CEDAR RAPIDS   CLOUDY    60  60 100 CALM      29.91S FOG
CHARLES CITY * SUNNY     61  61 100 CALM      29.93R
CLINTON *      CLOUDY    59  58  96 E6        29.94R FOG
DECORAH *      CLOUDY    63  59  88 CALM      29.91R
DUBUQUE        CLOUDY    62  59  90 S8        29.93R
MONTICELLO *   CLOUDY    59  59 100 SE6       29.92S FOG
OELWEIN *      CLOUDY    61  59  94 CALM      29.93R FOG
WATERLOO       CLOUDY    64  60  87 CALM      29.90S FOG
$$

IAZ064-065-067-068-078-271600-
   EAST CENTRAL IOWA

CITY           SKY/WX    TMP DP  RH WIND       PRES   REMARKS
DAVENPORT      CLOUDY    59  58  96 E8        29.93R
IOWA CITY      CLOUDY    61  58  90 VRB5      29.93R
MT. PLEASANT * CLOUDY    64  62  91 E6        29.92S FOG
MUSCATINE *    CLOUDY    61  61 100 E7        29.93R FOG
QUAD CITIES    CLOUDY    60  57  89 E6        29.92S FOG
$$

IAZ062-063-075>077-085>089-095>099-271600-
   SOUTHEAST IOWA

CITY           SKY/WX    TMP DP  RH WIND       PRES   REMARKS
BURLINGTON     CLOUDY    60  60 100 E8        29.90F FOG
FAIRFIELD *    CLOUDY    63  63 100 E5        29.92R FOG
FORT MADISON * FOG       61  61 100 NE8       29.91F VSB 1
KEOKUK *       CLOUDY    63  61  94 E9        29.90S FOG
OSKALOOSA *    PTSUNNY   64  63  96 CALM      29.93R
CENTERVILLE *    N/A     72  64  78 CALM      29.95R
OTTUMWA        CLOUDY    66  63  90 CALM      29.92R
WASHINGTON *   FOG       61  61 100 E7        29.93R VSB 1/4
$$

ABBREVIATIONS USED IN REMARKS
   TC - TEMPERATURES IN CELSIUS
  WCI - WIND CHILL INDEX
   HX - HEAT INDEX
  VSB - VISIBILITY
$$





USA.gov is the U.S. government's official web portal to all federal, state and local government web resources and services.